Flag for U.S.A. Weather past 2 weeks in Pasadena, Texas, U.S.A.

Now
73 °F

Light rain. Mostly cloudy.


Feels Like: 68 °F
Forecast: 77 / 85 °F
Wind: 7 mph from Southeast

Location: Houston / Ellington

Current Time: Sep 17, 2014 at 5:07:05 PM

Latest Report: Sep 17, 2014 at 3:50 PM


Visibility: 7 mi

Pressure: 29.91 "Hg

Humidity: 100%

Dew point: 73 °F

Location of PasadenaLocation

Historic Weather in Pasadena — Graph

°F

Pasadena temperature yesterday

Maximum temperature yesterday: 86 °F (at 9:50 AM)
Minimum temperature yesterday: 75 °F (at 4:50 PM)
Average temperature yesterday: 79 °F

Past Weeks' High & Low Weather Summary

 TemperatureHumidityPressure
High93 °F (Sep 10, 10:50 AM)100% (Sep 12, 7:50 PM)30.20 "Hg (Sep 12, 7:50 PM)
Low66 °F (Sep 14, 3:50 AM)52% (Sep 11, 1:50 PM)29.85 "Hg (Sep 10, 5:50 PM)
Average81 °F82%30.01 "Hg
* Reported Sep 2 2:50 PM — Sep 17 2:50 PM, Pasadena, Weather by CustomWeather, © 2014

Note: Actual official high and low records may vary slightly from our data, if they occured in-between our weather recording intervals... More about our weather records

Advertising

Pasadena weather history for previous 24 hours

 ConditionsComfort  
Time TempWeatherWind HumidityBarometerVisibility
2:50 PM
Sep 17
73 °FThunderstorms. Mostly cloudy.No wind100%29.94 "Hg2 mi
1:50 PM84 °FThunderstorms. Partly sunny.6 mph84%29.95 "Hg6 mi
12:50 PM86 °FPartly sunny.No wind79%29.96 "Hg10 mi
10:50 AM82 °FPartly sunny.3 mph84%29.97 "Hg10 mi
9:50 AM82 °FPartly sunny.3 mph84%29.98 "Hg10 mi
8:50 AM82 °FScattered clouds.No wind89%29.97 "Hg10 mi
7:50 AM77 °FPartly cloudy.No wind100%29.96 "Hg10 mi
6:50 AM77 °FPassing clouds.No wind94%29.96 "Hg10 mi
5:50 AM77 °FMostly cloudy.No wind94%29.94 "Hg7 mi
4:50 AM77 °FMostly cloudy.No wind94%29.95 "Hg7 mi
3:50 AMN/AMostly cloudy.No windN/A29.96 "Hg7 mi
2:50 AM77 °FMostly cloudy.No wind94%29.96 "Hg7 mi
11:50 PM
Sep 16
77 °FMostly cloudy.No wind94%30.02 "Hg7 mi
10:50 PM77 °FMostly cloudy.No wind94%30.02 "Hg7 mi
9:50 PM77 °FMostly cloudy.No wind94%30.01 "Hg7 mi
8:50 PM77 °FMostly cloudy.3 mph94%30.00 "Hg7 mi
7:50 PM77 °FMostly cloudy.35 mph94%30.00 "Hg7 mi
6:50 PM77 °FPartly sunny.3 mph94%29.99 "Hg7 mi
5:50 PM75 °FMostly cloudy.2 mph100%29.98 "Hg7 mi
Weather by CustomWeather, © 2014

See weather overviewHow to use our weather pages